�������l�o���
Date,Time,MP-1(��Sv/h),MP-2(��Sv/h),MP-3(��Sv/h),MP-4(��Sv/h),MP-5(��Sv/h),MP-6(��Sv/h),MP-7(��Sv/h),MP-8(��Sv/h),����,����(m/s),���J
2016/10/03,00:00,1.139,1.890,1.350,2.065,1.455,0.601,1.063,0.981,��,4.9,��
2016/10/03,00:10,1.141,1.889,1.353,2.064,1.454,0.601,1.065,0.980,��,5.2,��
2016/10/03,00:20,1.140,1.891,1.355,2.063,1.453,0.602,1.063,0.982,��쓌,5.8,��
2016/10/03,00:30,1.142,1.892,1.354,2.064,1.455,0.603,1.063,0.980,��쓌,5.0,��
2016/10/03,00:40,1.140,1.889,1.350,2.065,1.458,0.602,1.061,0.980,��,4.4,��
2016/10/03,00:50,1.137,1.887,1.354,2.065,1.454,0.601,1.064,0.980,��,3.8,��
2016/10/03,01:00,1.139,1.889,1.352,2.064,1.452,0.600,1.065,0.983,��,4.4,��
2016/10/03,01:10,1.141,1.889,1.353,2.066,1.455,0.602,1.062,0.981,��,5.2,��
2016/10/03,01:20,1.141,1.888,1.353,2.061,1.455,0.603,1.061,0.981,��,5.0,��
2016/10/03,01:30,1.140,1.891,1.353,2.064,1.456,0.600,1.064,0.981,��쓌,6.0,��
2016/10/03,01:40,1.140,1.889,1.352,2.063,1.457,0.602,1.063,0.982,��쓌,5.8,��
2016/10/03,01:50,1.141,1.892,1.351,2.063,1.458,0.602,1.064,0.980,��,6.4,��
2016/10/03,02:00,1.137,1.892,1.354,2.066,1.455,0.602,1.064,0.981,��쓌,4.9,��
2016/10/03,02:10,1.142,1.889,1.350,2.067,1.456,0.602,1.063,0.981,��,4.6,��
2016/10/03,02:20,1.139,1.892,1.352,2.065,1.454,0.602,1.063,0.979,��,3.8,��
2016/10/03,02:30,1.141,1.889,1.350,2.064,1.455,0.602,1.062,0.981,��,4.4,��
2016/10/03,02:40,1.139,1.891,1.351,2.064,1.455,0.601,1.063,0.982,��,4.2,��
2016/10/03,02:50,1.140,1.887,1.353,2.063,1.456,0.600,1.062,0.982,��,4.5,��
2016/10/03,03:00,1.139,1.888,1.354,2.064,1.453,0.602,1.062,0.983,��,5.2,��
2016/10/03,03:10,1.140,1.890,1.353,2.065,1.454,0.600,1.063,0.980,��,4.2,��
2016/10/03,03:20,1.142,1.888,1.351,2.062,1.457,0.601,1.062,0.981,��,4.9,��
2016/10/03,03:30,1.141,1.890,1.352,2.061,1.454,0.602,1.062,0.981,��,6.6,��
2016/10/03,03:40,1.140,1.886,1.354,2.063,1.453,0.600,1.063,0.981,��,7.1,��
2016/10/03,03:50,1.139,1.887,1.351,2.065,1.454,0.602,1.062,0.983,��,7.5,��
2016/10/03,04:00,1.139,1.888,1.350,2.067,1.455,0.603,1.062,0.981,��,6.3,��
2016/10/03,04:10,1.141,1.887,1.352,2.065,1.456,0.601,1.062,0.981,��쓌,5.3,��
2016/10/03,04:20,1.140,1.889,1.350,2.064,1.455,0.601,1.063,0.980,��쓌,5.5,��
2016/10/03,04:30,1.140,1.888,1.352,2.063,1.455,0.602,1.062,0.981,��쓌,5.5,��
2016/10/03,04:40,1.139,1.886,1.352,2.063,1.456,0.601,1.064,0.981,��쓌,6.0,��
2016/10/03,04:50,1.139,1.892,1.354,2.062,1.454,0.600,1.062,0.983,��쓌,5.0,��
2016/10/03,05:00,1.137,1.888,1.353,2.064,1.455,0.601,1.063,0.983,��,5.5,��
2016/10/03,05:10,1.141,1.886,1.351,2.063,1.453,0.602,1.062,0.981,��,4.6,��
2016/10/03,05:20,1.141,1.892,1.354,2.064,1.455,0.602,1.062,0.982,��,4.7,��
2016/10/03,05:30,1.139,1.889,1.350,2.064,1.455,0.601,1.064,0.980,��,4.2,��
2016/10/03,05:40,1.141,1.886,1.354,2.063,1.455,0.601,1.063,0.982,��,3.6,��
2016/10/03,05:50,1.138,1.889,1.354,2.063,1.455,0.601,1.062,0.982,��쐼,2.4,��
2016/10/03,06:00,1.139,1.890,1.351,2.065,1.456,0.600,1.063,0.981,��,2.2,��
2016/10/03,06:10,1.141,1.890,1.352,2.065,1.451,0.601,1.062,0.983,��,1.5,��
2016/10/03,06:20,1.140,1.891,1.353,2.067,1.454,0.601,1.063,0.983,��쐼,1.6,��
2016/10/03,06:30,1.141,1.887,1.356,2.067,1.454,0.601,1.063,0.981,��쐼,1.9,��
2016/10/03,06:40,1.141,1.890,1.355,2.064,1.454,0.602,1.062,0.983,��쓌,1.7,��
2016/10/03,06:50,1.144,1.891,1.355,2.067,1.454,0.602,1.063,0.982,��,2.3,��
2016/10/03,07:00,1.140,1.892,1.355,2.066,1.455,0.599,1.065,0.981,��,2.6,��
2016/10/03,07:10,1.144,1.890,1.356,2.064,1.454,0.602,1.064,0.984,��,2.9,��
2016/10/03,07:20,1.141,1.889,1.355,2.064,1.456,0.602,1.061,0.982,��,4.5,��
2016/10/03,07:30,1.142,1.893,1.357,2.067,1.456,0.601,1.063,0.984,��,4.2,��
2016/10/03,07:40,1.142,1.893,1.354,2.067,1.457,0.601,1.062,0.983,��,4.7,��
2016/10/03,07:50,1.141,1.888,1.356,2.068,1.455,0.603,1.062,0.985,��,3.6,��
2016/10/03,08:00,1.140,1.888,1.358,2.067,1.457,0.598,1.062,0.983,��,3.2,��
2016/10/03,08:10,1.144,1.889,1.356,2.069,1.455,0.599,1.061,0.983,��쓌,3.8,��
2016/10/03,08:20,1.143,1.890,1.356,2.068,1.455,0.600,1.063,0.984,��쓌,4.4,��
2016/10/03,08:30,1.141,1.892,1.355,2.068,1.456,0.600,1.061,0.980,��,5.8,��
2016/10/03,08:40,1.143,1.886,1.355,2.067,1.454,0.598,1.062,0.981,��,6.4,��
2016/10/03,08:50,1.141,1.889,1.356,2.069,1.455,0.598,1.063,0.981,��,5.2,��
2016/10/03,09:00,1.140,1.890,1.354,2.069,1.452,0.599,1.063,0.982,��,6.0,��
2016/10/03,09:10,1.139,1.890,1.353,2.069,1.452,0.599,1.063,0.981,��,4.1,��
2016/10/03,09:20,1.139,1.891,1.353,2.068,1.453,0.599,1.061,0.981,��쓌,4.1,��
2016/10/03,09:30,1.139,1.891,1.354,2.071,1.455,0.599,1.062,0.979,��쓌,5.5,��
2016/10/03,09:40,1.142,1.892,1.358,2.069,1.452,0.600,1.061,0.978,��쓌,5.3,��
2016/10/03,09:50,1.140,1.889,1.355,2.068,1.454,0.601,1.063,0.979,��쓌,5.2,��
2016/10/03,10:00,1.142,1.889,1.357,2.070,1.455,0.601,1.063,0.981,��,5.6,��
2016/10/03,10:10,1.144,1.891,1.355,2.073,1.456,0.600,1.065,0.980,��,4.6,��
2016/10/03,10:20,1.143,1.892,1.357,2.072,1.458,0.599,1.066,0.981,��,6.0,��
2016/10/03,10:30,1.140,1.893,1.358,2.072,1.457,0.601,1.064,0.980,��,6.6,��
2016/10/03,10:40,1.143,1.885,1.356,2.071,1.457,0.602,1.065,0.981,��,5.2,��
2016/10/03,10:50,1.143,1.888,1.358,2.072,1.456,0.603,1.064,0.982,��,5.5,��
2016/10/03,11:00,1.142,1.890,1.355,2.071,1.458,0.601,1.064,0.982,��,6.0,��
2016/10/03,11:10,1.141,1.889,1.358,2.071,1.457,0.602,1.064,0.980,��쓌,7.7,��
2016/10/03,11:20,1.145,1.889,1.355,2.070,1.456,0.603,1.066,0.982,��쓌,6.3,��
2016/10/03,11:30,1.143,1.895,1.354,2.068,1.461,0.601,1.065,0.982,��쓌,6.3,��
2016/10/03,11:40,1.143,1.894,1.360,2.070,1.456,0.603,1.064,0.980,��,6.6,��
2016/10/03,11:50,1.143,1.895,1.360,2.072,1.457,0.603,1.067,0.979,��,6.9,��
2016/10/03,12:00,1.142,1.893,1.359,2.071,1.460,0.603,1.067,0.981,��,6.0,�L
2016/10/03,12:10,1.139,1.892,1.351,2.063,1.450,0.601,1.063,0.978,��쓌,8.6,�L
2016/10/03,12:20,1.137,1.888,1.350,2.065,1.451,0.600,1.062,0.979,��쓌,9.7,�L
2016/10/03,12:30,1.135,1.884,1.343,2.063,1.447,0.602,1.061,0.979,��,8.8,�L
2016/10/03,12:40,1.134,1.882,1.344,2.061,1.446,0.600,1.063,0.979,��쓌,10.1,�L
2016/10/03,12:50,1.132,1.874,1.341,2.055,1.443,0.599,1.061,0.978,��쓌,9.9,�L
2016/10/03,13:00,1.130,1.876,1.335,2.055,1.440,0.599,1.059,0.978,��,9.4,�L
2016/10/03,13:10,1.131,1.872,1.340,2.057,1.437,0.600,1.059,0.979,��,8.5,�L
2016/10/03,13:20,1.130,1.872,1.340,2.055,1.440,0.599,1.059,0.978,��,9.1,��
2016/10/03,13:30,1.131,1.877,1.345,2.055,1.441,0.600,1.060,0.978,��,8.6,��
2016/10/03,13:40,1.134,1.877,1.346,2.058,1.441,0.600,1.059,0.975,��,9.6,��
2016/10/03,13:50,1.134,1.875,1.347,2.055,1.443,0.601,1.058,0.979,��,7.5,��
2016/10/03,14:00,1.131,1.877,1.348,2.055,1.444,0.601,1.062,0.979,��,6.6,��
2016/10/03,14:10,1.133,1.875,1.344,2.057,1.446,0.602,1.062,0.981,��,7.1,��
2016/10/03,14:20,1.132,1.883,1.347,2.056,1.443,0.601,1.061,0.980,��쓌,7.2,��
2016/10/03,14:30,1.132,1.878,1.347,2.061,1.445,0.602,1.062,0.979,��쓌,7.4,��
2016/10/03,14:40,1.133,1.878,1.349,2.057,1.444,0.599,1.063,0.981,��,6.9,��
2016/10/03,14:50,1.131,1.880,1.347,2.059,1.446,0.603,1.061,0.981,��쓌,6.3,��
2016/10/03,15:00,1.132,1.885,1.349,2.062,1.449,0.600,1.062,0.981,��쐼,4.9,��
2016/10/03,15:10,1.134,1.884,1.349,2.061,1.446,0.601,1.063,0.981,��,7.2,��
2016/10/03,15:20,1.136,1.884,1.351,2.059,1.447,0.602,1.066,0.983,��쐼,7.8,��
2016/10/03,15:30,1.135,1.884,1.352,2.062,1.447,0.602,1.064,0.981,��쐼,8.0,��
2016/10/03,15:40,1.136,1.885,1.351,2.061,1.450,0.602,1.065,0.981,��쐼,6.9,��
2016/10/03,15:50,1.138,1.884,1.352,2.061,1.448,0.602,1.064,0.981,��쐼,6.3,��
2016/10/03,16:00,1.135,1.886,1.353,2.063,1.449,0.601,1.065,0.979,��,8.3,��
2016/10/03,16:10,1.135,1.886,1.351,2.062,1.449,0.603,1.064,0.982,��쐼,5.5,��
2016/10/03,16:20,1.138,1.882,1.353,2.062,1.448,0.603,1.063,0.983,�쐼,5.8,��
2016/10/03,16:30,1.137,1.884,1.352,2.062,1.449,0.601,1.063,0.981,���쐼,4.1,��
2016/10/03,16:40,1.135,1.888,1.353,2.061,1.448,0.603,1.064,0.981,��,4.9,��
2016/10/03,16:50,1.137,1.888,1.352,2.063,1.449,0.603,1.064,0.980,��쐼,6.3,��
2016/10/03,17:00,1.137,1.884,1.352,2.062,1.452,0.604,1.062,0.980,��쐼,4.7,��
2016/10/03,17:10,1.138,1.888,1.353,2.064,1.453,0.603,1.063,0.980,��쐼,5.2,��
2016/10/03,17:20,1.136,1.886,1.355,2.062,1.450,0.593,1.064,0.981,��쐼,4.9,��
2016/10/03,17:30,1.136,1.889,1.353,2.061,1.450,0.604,1.064,0.983,��,5.6,��
2016/10/03,17:40,1.138,1.892,1.351,2.064,1.452,0.605,1.065,0.983,��,6.0,��
2016/10/03,17:50,1.139,1.889,1.353,2.063,1.454,0.603,1.065,0.982,��,7.1,��
2016/10/03,18:00,1.137,1.888,1.353,2.063,1.451,0.603,1.064,0.985,��,8.3,��
2016/10/03,18:10,1.137,1.890,1.354,2.065,1.452,0.602,1.064,0.983,��,8.0,��
2016/10/03,18:20,1.138,1.891,1.353,2.062,1.456,0.603,1.067,0.985,��,7.1,��
2016/10/03,18:30,1.138,1.890,1.355,2.069,1.451,0.603,1.064,0.983,��,8.2,��
2016/10/03,18:40,1.139,1.891,1.355,2.065,1.454,0.604,1.066,0.983,��,8.8,��
2016/10/03,18:50,1.138,1.891,1.354,2.067,1.450,0.604,1.065,0.983,��,11.9,��
2016/10/03,19:00,1.137,1.891,1.352,2.067,1.456,0.602,1.065,0.984,��,11.9,��
2016/10/03,19:10,1.136,1.893,1.355,2.064,1.452,0.604,1.064,0.982,��,8.0,��
2016/10/03,19:20,1.137,1.892,1.350,2.066,1.451,0.603,1.063,0.982,��,7.7,��
2016/10/03,19:30,1.137,1.889,1.352,2.065,1.453,0.600,1.065,0.982,��,6.1,��
2016/10/03,19:40,1.136,1.891,1.352,2.067,1.452,0.603,1.064,0.982,��,7.7,��
2016/10/03,19:50,1.136,1.889,1.352,2.063,1.451,0.602,1.063,0.982,��,7.7,��
2016/10/03,20:00,1.133,1.892,1.352,2.066,1.453,0.602,1.062,0.982,��,6.7,��
2016/10/03,20:10,1.135,1.891,1.354,2.063,1.451,0.603,1.064,0.981,��,8.0,��
2016/10/03,20:20,1.134,1.890,1.352,2.064,1.452,0.602,1.065,0.982,��,9.3,��
2016/10/03,20:30,1.136,1.890,1.352,2.064,1.451,0.602,1.065,0.984,��쓌,8.3,��
2016/10/03,20:40,1.137,1.887,1.354,2.064,1.450,0.604,1.062,0.982,��,8.3,��
2016/10/03,20:50,1.137,1.890,1.353,2.064,1.452,0.602,1.063,0.983,��,7.5,��
2016/10/03,21:00,1.137,1.888,1.353,2.067,1.450,0.602,1.063,0.984,��,6.3,��
2016/10/03,21:10,1.138,1.890,1.355,2.065,1.451,0.602,1.067,0.983,��,5.0,��
2016/10/03,21:20,1.137,1.892,1.354,2.062,1.447,0.602,1.064,0.984,��쐼,3.9,��
2016/10/03,21:30,1.138,1.889,1.353,2.063,1.451,0.605,1.064,0.982,��,3.2,��
2016/10/03,21:40,1.142,1.891,1.355,2.065,1.453,0.602,1.065,0.984,��,4.5,��
2016/10/03,21:50,1.139,1.892,1.353,2.063,1.453,0.604,1.064,0.982,��쐼,3.4,��
2016/10/03,22:00,1.138,1.891,1.355,2.065,1.454,0.605,1.065,0.983,��,3.6,��
2016/10/03,22:10,1.139,1.890,1.354,2.062,1.453,0.604,1.064,0.982,��쓌,1.9,��
2016/10/03,22:20,1.137,1.890,1.352,2.064,1.456,0.605,1.064,0.984,��,3.4,��
2016/10/03,22:30,1.139,1.892,1.354,2.066,1.457,0.604,1.065,0.982,��,4.4,��
2016/10/03,22:40,1.138,1.891,1.352,2.066,1.452,0.604,1.065,0.984,��쐼,4.2,��
2016/10/03,22:50,1.140,1.892,1.354,2.065,1.452,0.603,1.065,0.985,��쐼,4.5,��
2016/10/03,23:00,1.138,1.889,1.353,2.067,1.455,0.604,1.067,0.983,��쐼,4.1,��
2016/10/03,23:10,1.141,1.892,1.351,2.065,1.453,0.605,1.067,0.983,��쐼,2.6,��
2016/10/03,23:20,1.138,1.890,1.354,2.067,1.453,0.604,1.065,0.983,��쐼,2.1,��
2016/10/03,23:30,1.136,1.888,1.351,2.066,1.455,0.604,1.065,0.982,��쐼,1.8,��
2016/10/03,23:40,1.140,1.891,1.355,2.065,1.455,0.605,1.066,0.982,��쐼,2.2,��
2016/10/03,23:50,1.140,1.889,1.355,2.063,1.453,0.603,1.064,0.983,�쐼,1.4,��
